TimeEDT,TemperatureF,Dew PointF,Humidity,Sea Level PressureIn,VisibilityMPH,Wind Direction,Wind SpeedMPH,Gust SpeedMPH,PrecipitationIn,Events,Conditions,WindDirDegrees,DateUTC
12:15 AM,69.8,62.6,78,29.86,10.0,SSW,5.8,-,N/A,,Scattered Clouds,200,2013-06-02 04:15:00
12:35 AM,69.8,62.6,78,29.85,10.0,SSW,8.1,-,N/A,Thunderstorm,Thunderstorm,200,2013-06-02 04:35:00
12:55 AM,69.8,62.6,78,29.85,10.0,SSW,5.8,-,N/A,,Mostly Cloudy,200,2013-06-02 04:55:00
1:15 AM,69.8,62.6,78,29.84,10.0,SSW,6.9,-,N/A,,Overcast,200,2013-06-02 05:15:00
1:35 AM,69.8,62.6,78,29.83,10.0,SSW,6.9,-,N/A,,Overcast,200,2013-06-02 05:35:00
1:55 AM,69.8,60.8,73,29.83,10.0,South,6.9,-,N/A,,Overcast,190,2013-06-02 05:55:00
2:15 AM,69.8,62.6,78,29.82,10.0,SSW,6.9,-,N/A,,Overcast,200,2013-06-02 06:15:00
2:35 AM,69.8,62.6,78,29.81,10.0,South,9.2,-,N/A,,Overcast,190,2013-06-02 06:35:00
2:55 AM,68.0,62.6,83,29.80,7.0,SSW,6.9,-,N/A,Rain,Rain,210,2013-06-02 06:55:00
3:15 AM,68.0,62.6,83,29.80,10.0,SSW,6.9,-,N/A,Thunderstorm,Overcast,210,2013-06-02 07:15:00
3:35 AM,68.0,62.6,83,29.79,10.0,SSW,5.8,-,N/A,Thunderstorm,Mostly Cloudy,210,2013-06-02 07:35:00
3:55 AM,66.2,62.6,88,29.81,4.0,SSW,15.0,25.3,N/A,Rain-Thunderstorm,Heavy Thunderstorms and Rain,210,2013-06-02 07:55:00
4:15 AM,64.4,62.6,94,29.79,7.0,SSW,9.2,19.6,N/A,Rain,Light Rain,210,2013-06-02 08:15:00
4:35 AM,62.6,60.8,94,29.84,2.5,WSW,15.0,36.8,N/A,Rain-Thunderstorm,Rain,250,2013-06-02 08:35:00
4:55 AM,62.6,60.8,94,29.84,10.0,SW,9.2,19.6,N/A,Rain,Rain,230,2013-06-02 08:55:00
5:15 AM,60.8,60.8,100,29.82,7.0,SW,5.8,16.1,N/A,Rain,Rain,230,2013-06-02 09:15:00
5:35 AM,60.8,60.8,100,29.82,7.0,SW,5.8,-,N/A,Rain,Light Rain,220,2013-06-02 09:35:00
5:55 AM,60.8,60.8,100,29.82,10.0,SW,8.1,-,N/A,Rain,Rain,220,2013-06-02 09:55:00
6:15 AM,60.8,60.8,100,29.82,7.0,SW,5.8,-,N/A,Rain,Rain,220,2013-06-02 10:15:00
6:35 AM,60.8,60.8,100,29.81,10.0,South,6.9,-,N/A,Rain,Light Rain,190,2013-06-02 10:35:00
6:55 AM,60.8,60.8,100,29.81,7.0,SSW,6.9,-,N/A,Rain,Rain,210,2013-06-02 10:55:00
7:15 AM,60.8,60.8,100,29.82,10.0,SSW,6.9,-,N/A,Rain,Rain,200,2013-06-02 11:15:00
7:35 AM,60.8,60.8,100,29.82,10.0,SSW,8.1,-,N/A,,Overcast,200,2013-06-02 11:35:00
7:55 AM,60.8,60.8,100,29.81,7.0,SSW,8.1,-,N/A,Rain,Light Rain,200,2013-06-02 11:55:00
8:15 AM,60.8,60.8,100,29.81,10.0,SSW,8.1,-,N/A,,Mostly Cloudy,210,2013-06-02 12:15:00
8:35 AM,62.6,60.8,94,29.82,10.0,SSW,9.2,-,N/A,,Scattered Clouds,200,2013-06-02 12:35:00
8:55 AM,62.6,60.8,94,29.81,10.0,SSW,6.9,-,N/A,,Mostly Cloudy,210,2013-06-02 12:55:00
9:15 AM,62.6,60.8,94,29.81,10.0,SW,5.8,-,N/A,,Overcast,220,2013-06-02 13:15:00
9:35 AM,62.6,60.8,94,29.82,10.0,SW,9.2,-,N/A,,Overcast,220,2013-06-02 13:35:00
9:55 AM,62.6,60.8,94,29.82,10.0,SSW,8.1,-,N/A,,Overcast,210,2013-06-02 13:55:00
10:15 AM,62.6,60.8,94,29.82,10.0,SW,9.2,17.3,N/A,,Mostly Cloudy,230,2013-06-02 14:15:00
10:35 AM,66.2,62.6,88,29.82,10.0,WSW,10.4,18.4,N/A,,Mostly Cloudy,240,2013-06-02 14:35:00
10:55 AM,64.4,59.0,83,29.82,10.0,SW,8.1,21.9,N/A,,Mostly Cloudy,230,2013-06-02 14:55:00
11:15 AM,66.2,60.8,83,29.82,10.0,WSW,8.1,-,N/A,,Overcast,240,2013-06-02 15:15:00
11:35 AM,68.0,59.0,73,29.83,10.0,SW,9.2,-,N/A,,Mostly Cloudy,230,2013-06-02 15:35:00
11:55 AM,68.0,60.8,78,29.83,10.0,SW,8.1,16.1,N/A,,Scattered Clouds,230,2013-06-02 15:55:00
12:15 PM,66.2,59.0,78,29.83,10.0,SW,8.1,19.6,N/A,,Mostly Cloudy,230,2013-06-02 16:15:00
12:35 PM,68.0,59.0,73,29.82,10.0,WSW,6.9,-,N/A,,Mostly Cloudy,250,2013-06-02 16:35:00
12:55 PM,69.8,59.0,68,29.82,10.0,WSW,6.9,-,N/A,,Mostly Cloudy,240,2013-06-02 16:55:00
1:15 PM,68.0,57.2,68,29.82,10.0,WSW,9.2,20.7,N/A,,Overcast,240,2013-06-02 17:15:00
1:35 PM,68.0,57.2,68,29.83,10.0,WSW,10.4,20.7,N/A,,Overcast,240,2013-06-02 17:35:00
1:55 PM,68.0,59.0,73,29.83,10.0,SSW,11.5,17.3,N/A,,Overcast,210,2013-06-02 17:55:00
2:15 PM,68.0,60.8,78,29.83,10.0,SW,10.4,17.3,N/A,,Mostly Cloudy,230,2013-06-02 18:15:00
2:35 PM,69.8,60.8,73,29.83,10.0,SW,9.2,-,N/A,,Scattered Clouds,230,2013-06-02 18:35:00
2:55 PM,69.8,59.0,68,29.82,10.0,SW,9.2,-,N/A,,Scattered Clouds,220,2013-06-02 18:55:00
3:15 PM,68.0,59.0,73,29.83,10.0,WSW,5.8,-,N/A,,Overcast,240,2013-06-02 19:15:00
3:35 PM,68.0,57.2,68,29.83,10.0,WSW,9.2,16.1,N/A,,Overcast,240,2013-06-02 19:35:00
3:55 PM,68.0,60.8,78,29.83,10.0,West,3.5,-,N/A,,Overcast,270,2013-06-02 19:55:00
4:15 PM,68.0,59.0,73,29.83,10.0,West,11.5,21.9,N/A,,Overcast,280,2013-06-02 20:15:00
4:35 PM,69.8,59.0,68,29.83,10.0,West,5.8,20.7,N/A,,Mostly Cloudy,280,2013-06-02 20:35:00
4:55 PM,69.8,57.2,64,29.83,10.0,West,9.2,17.3,N/A,,Mostly Cloudy,270,2013-06-02 20:55:00
5:15 PM,69.8,57.2,64,29.84,10.0,WNW,4.6,-,N/A,,Mostly Cloudy,290,2013-06-02 21:15:00
5:35 PM,69.8,57.2,64,29.84,10.0,WNW,5.8,-,N/A,,Scattered Clouds,300,2013-06-02 21:35:00
5:55 PM,68.0,55.4,64,29.85,10.0,West,5.8,17.3,N/A,,Mostly Cloudy,280,2013-06-02 21:55:00
6:15 PM,68.0,55.4,64,29.85,10.0,West,6.9,-,N/A,,Overcast,280,2013-06-02 22:15:00
6:35 PM,68.0,53.6,60,29.85,10.0,West,12.7,18.4,N/A,,Mostly Cloudy,270,2013-06-02 22:35:00
6:55 PM,68.0,51.8,56,29.85,10.0,West,6.9,16.1,N/A,,Scattered Clouds,270,2013-06-02 22:55:00
7:15 PM,66.2,51.8,60,29.85,10.0,WNW,4.6,-,N/A,,Clear,290,2013-06-02 23:15:00
7:35 PM,64.4,51.8,64,29.86,10.0,West,3.5,16.1,N/A,,Clear,280,2013-06-02 23:35:00
7:55 PM,64.4,51.8,64,29.86,10.0,WNW,4.6,-,N/A,,Clear,290,2013-06-02 23:55:00
8:15 PM,62.6,51.8,68,29.87,10.0,West,3.5,-,N/A,,Clear,270,2013-06-03 00:15:00
8:35 PM,62.6,51.8,68,29.87,10.0,West,6.9,-,N/A,,Scattered Clouds,280,2013-06-03 00:35:00
8:55 PM,60.8,51.8,72,29.88,10.0,West,4.6,-,N/A,,Scattered Clouds,270,2013-06-03 00:55:00
9:15 PM,60.8,51.8,72,29.88,10.0,West,4.6,-,N/A,,Scattered Clouds,260,2013-06-03 01:15:00
9:35 PM,60.8,51.8,72,29.88,10.0,Calm,Calm,-,N/A,,Scattered Clouds,0,2013-06-03 01:35:00
9:55 PM,59.0,51.8,77,29.89,10.0,West,4.6,-,N/A,,Scattered Clouds,270,2013-06-03 01:55:00
10:15 PM,59.0,51.8,77,29.89,10.0,Calm,Calm,-,N/A,,Clear,0,2013-06-03 02:15:00
10:35 PM,59.0,51.8,77,29.89,10.0,West,3.5,-,N/A,,Clear,270,2013-06-03 02:35:00
10:55 PM,57.2,53.6,88,29.90,10.0,Calm,Calm,-,N/A,,Scattered Clouds,0,2013-06-03 02:55:00
11:15 PM,57.2,53.6,88,29.91,10.0,West,3.5,-,N/A,,Mostly Cloudy,280,2013-06-03 03:15:00
11:35 PM,57.2,53.6,88,29.91,10.0,WNW,3.5,-,N/A,,Overcast,300,2013-06-03 03:35:00
11:55 PM,55.4,53.6,94,29.91,10.0,WNW,6.9,-,N/A,,Overcast,290,2013-06-03 03:55:00